[[{"header":{"parameterUnit":"m.s-1","parameterCategory":1,"la1":30.2991,"la2":30.254,"lo1":-89.0895,"lo2":-89.0444,"dy":0.0017,"dx":0.0017,"nx":28,"ny":28,"refTime":"2023-10-02T09:00:00:Z","depth":0,"parameterNumber":2,"parameterNumberName":"U-component_of_WINDS"},"data":[0,0,0,0,0,0,0,0,0,0,0,0,0,0,0,0,0,0,0,0,0,0,0,0,0,0,0,0,0,0,0,0,0,0,0,0,0,0,0,0,0,0,0,0,0,0,0,0,0,0,0,0,0,0,0,0,0,0,-5.8339,-5.834,0,-5.8387,-5.8388,-5.8388,-5.8196,-5.8191,-5.8185,-5.818,-5.8229,-5.8236,-5.8242,0,0,0,0,0,0,0,0,0,0,0,0,0,-5.8081,-5.8087,-5.8339,-5.834,-5.834,-5.8387,-5.8388,-5.8388,-5.8197,-5.819,-5.8184,-5.8177,-5.8227,-5.8235,-5.8243,0,0,0,0,0,0,0,0,0,0,0,0,0,-5.8168,-5.8089,-5.8339,-5.8251,-5.8243,-5.8387,-5.8388,-5.8389,-5.8199,-5.819,-5.8182,-5.8174,-5.8224,-5.8234,-5.8244,-5.8475,0,0,-5.8274,-5.8278,0,0,0,0,0,0,0,0,-5.8163,-5.8178,-5.8263,-5.8257,-5.8249,-5.8277,-5.8315,-5.8418,-5.8201,-5.8216,-5.818,-5.817,-5.8252,-5.8259,-5.8287,-5.8477,-5.8479,-5.8275,-5.8281,-5.8285,-5.8288,0,0,0,0,0,0,0,-5.8158,-5.8175,-5.8358,-5.8265,-5.8256,-5.8208,-5.8211,-5.8333,-5.8281,-5.8214,-5.82,-5.8208,-5.8246,-5.8278,-5.8287,-5.848,-5.8275,-5.8283,-5.829,-5.8293,-5.8861,-5.887,0,0,0,0,0,0,-5.8163,-5.8171,-5.8357,-5.8359,-5.8184,-5.822,-5.8223,-5.8277,-5.8279,-5.8271,-5.8215,-5.8199,-5.8265,-5.8275,-5.8288,-5.8557,-5.8285,-5.8294,-5.83,-5.8852,-5.8863,-5.8873,0,0,0,0,0,0,-5.8159,-5.8182,-5.8355,-5.8261,-5.828,-5.8233,-5.8295,-5.8282,-5.8313,-5.828,-5.827,-5.8257,-5.8259,-5.8274,-5.8429,-5.8556,-5.8299,-5.8308,-5.8842,-5.8856,-5.8868,-5.91,0,0,0,0,0,0,-5.8152,-5.8181,-5.8269,-5.8265,-5.8286,-5.8497,-5.8303,-5.8289,-5.8331,-5.831,-5.8317,-5.831,-5.8253,-5.8416,-5.8439,-5.8565,-5.8316,-5.883,-5.8848,-5.8864,-5.9081,-5.912,-5.9154,0,0,0,0,0,-5.8143,-5.8332,-5.8274,-5.8298,-5.8394,-5.8504,-5.8516,-5.8447,-5.8342,-5.8429,-5.8408,-5.8309,-5.8539,-5.8433,-5.8458,-5.8589,-5.8822,-5.8843,-5.8863,-5.9065,-5.9112,-5.9153,0,0,0,0,0,0,-5.8353,-5.833,-5.8265,-5.8459,-5.8485,-5.8472,-5.858,-5.85,-5.8557,-5.8535,-5.8447,-5.845,-5.8622,-5.8621,-5.8504,-5.8812,-5.8662,-5.8689,-5.8807,-5.8852,-5.8888,-5.8884,-5.8324,0,0,0,0,0,-5.8421,-5.8513,-5.8488,-5.8661,-5.8678,-5.8628,-5.8673,-5.8617,-5.8641,-5.8651,-5.8641,-5.8668,-5.8745,-5.8799,-5.8868,-5.908,-5.9078,-5.9182,-5.9219,-5.9248,-5.9272,-5.9383,-5.9429,-5.8941,-5.8941,-5.894,0,0,-5.8564,-5.8563,-5.8626,-5.8703,-5.8717,-5.8813,-5.8638,-5.8747,-5.8818,-5.8667,-5.8814,-5.8808,-5.8832,-5.9016,-5.9097,-5.9021,-5.9407,-5.9275,-5.9299,-5.9306,-5.9409,-5.9455,-5.9496,-5.8955,-5.8952,-5.895,0,0,-5.8873,-5.8882,-5.9026,-5.9044,-5.9067,-5.9032,-5.9067,-5.9066,-5.9056,-5.9202,-5.909,-5.9173,-5.9309,-5.933,-5.9359,-5.9676,-5.9588,-5.9702,-5.9891,-6.0,-6.0039,-6.0072,-6.0185,-6.0226,-5.9726,-5.9726,-5.9727,0,-5.9047,-5.9188,-5.9111,-5.9228,-5.9265,-5.9133,-5.9278,-5.9299,-5.9344,-5.9372,-5.9286,-5.9454,-5.9461,-5.9648,-5.9725,-5.9753,-5.979,-5.97,-6.0039,-6.0072,-6.0103,-6.0209,-6.0251,-5.974,-5.9738,-5.9737,-5.9736,0,-5.9401,-5.9501,-5.9614,-5.9661,-5.9711,-5.9842,-5.9784,-5.9844,-5.9784,-5.9759,-5.9908,-5.9912,-5.9979,-6.002,-5.9963,-6.0199,-6.0151,-6.0054,-5.9901,-6.0164,-6.0262,-6.0302,-5.9759,-5.9755,-5.975,-5.9747,0,0,-5.9843,-5.9845,-5.9888,-5.9907,-5.9922,-5.9998,-6.0123,-6.0189,-6.0241,-6.0277,-6.0379,-6.0497,-6.0407,-6.044,-6.0384,-6.048,-6.073,-6.037,-6.037,-6.0437,-6.099,-6.1062,-6.1111,-6.0672,-6.0679,-6.0685,-6.0987,0,-6.0145,-6.0358,-6.0292,-6.0507,-6.0597,-6.0474,-6.0582,-6.0603,-6.0583,-6.0656,-6.0633,-6.0718,-6.0593,-6.0612,-6.0702,-6.0681,-6.084,-6.0658,-6.0765,-6.077,-6.0762,-6.1162,-6.1239,-6.1524,-6.1025,-6.1032,-6.1036,0,-6.0526,-6.0576,-6.0801,-6.08,-6.0836,-6.0935,-6.0989,-6.1062,-6.1083,-6.1061,-6.1099,-6.1023,-6.1144,-6.0992,-6.1158,-6.1036,-6.1076,-6.1073,-6.1082,-6.1088,-6.0919,-6.1179,-6.1613,-6.1656,-6.1096,-6.1092,-6.1087,0,-6.0825,-6.0949,-6.1098,-6.1119,-6.1122,-6.1195,-6.12,-6.1212,-6.1256,-6.1305,-6.1332,-6.1394,-6.1428,-6.1478,-6.1421,-6.1315,-6.1596,-6.1439,-6.1581,-6.1583,-6.1645,-6.1642,-6.2092,-6.1673,-6.1672,-6.1671,-6.1671,0,-6.1169,-6.131,-6.1232,-6.1325,-6.1479,-6.1402,-6.1558,-6.1548,-6.1561,-6.1649,-6.1546,-6.1631,-6.155,-6.1628,-6.1584,-6.1728,-6.1745,-6.173,-6.1716,-6.1739,-6.1741,-6.1763,-6.1741,-6.1683,-6.168,-6.1678,-6.1676,0,-6.1528,-6.1482,-6.1636,-6.1627,-6.1628,-6.1743,-6.1734,-6.1819,-6.1791,-6.1904,-6.1926,-6.1882,-6.1968,-6.1916,-6.2003,-6.1973,-6.2161,-6.2121,-6.2154,-6.2143,-6.2288,-6.2275,-6.2767,-6.2827,-6.2371,-6.2376,-6.2379,0,-6.175,-6.1856,-6.1858,-6.191,-6.1921,-6.2006,-6.205,-6.1978,-6.2028,-6.2061,-6.2142,-6.2218,-6.2276,-6.2418,-6.2394,-6.246,-6.242,-6.2588,-6.2429,-6.2448,-6.2422,-6.2416,-6.2425,-6.262,-6.2626,-6.263,-6.2634,0,-6.2149,-6.212,-6.2188,-6.2248,-6.2304,-6.2348,-6.2383,-6.2431,-6.2359,-6.2421,-6.2507,-6.2552,-6.2641,-6.2718,-6.2774,-6.2778,-6.2695,-6.2684,-6.272,-6.2743,-6.2758,-6.2751,-6.224,-6.2673,-6.2669,-6.2666,-6.2664,-6.2662,-6.2445,-6.2533,-6.2548,-6.2627,-6.2646,-6.2682,-6.276,-6.2742,-6.2813,-6.288,-6.2833,-6.2935,-6.2953,-6.3019,-6.3035,-6.3113,-6.3045,-6.3098,-6.3111,-6.3125,-6.3144,-6.2747,-6.3123,-6.3122,-6.3121,-6.312,-6.3119,0,-6.2837,-6.2841,-6.2914,-6.2967,-6.3029,-6.2945,-6.2979,-6.3037,-6.3128,-6.3152,-6.321,-6.331,-6.3384,-6.3366,-6.3433,-6.3499,-6.3463,-6.3519,-6.3513,-6.3515,-6.3202,-6.3164,-6.3548,-6.3548,-6.3548,-6.3548,-6.3548,-6.3548,-6.3048,-6.3193,-6.3167,-6.3319,-6.3322,-6.3421,-6.3448,-6.348,-6.3498,-6.3614,-6.3675,-6.3663,-6.367,-6.3736,-6.3801,-6.3793,-6.3823,-6.3894,-6.3873,-6.358,-6.3538,-6.3497,-6.346,-6.3901,-6.3901,-6.4179,-6.4181,-6.4183]},{"header":{"parameterUnit":"m.s-1","parameterCategory":1,"la1":30.2991,"la2":30.254,"lo1":-89.0895,"lo2":-89.0444,"dy":0.0017,"dx":0.0017,"nx":28,"ny":28,"refTime":"2023-10-02T09:00:00:Z","depth":0,"parameterNumber":3,"parameterNumberName":"V-component_of_WINDS"},"data":[0,0,0,0,0,0,0,0,0,0,0,0,0,0,0,0,0,0,0,0,0,0,0,0,0,0,0,0,0,0,0,0,0,0,0,0,0,0,0,0,0,0,0,0,0,0,0,0,0,0,0,0,0,0,0,0,0,0,-1.4059,-1.4059,0,-1.4048,-1.4048,-1.4047,-1.4056,-1.4056,-1.4056,-1.4057,-1.4045,-1.4044,-1.4044,0,0,0,0,0,0,0,0,0,0,0,0,0,-1.4086,-1.4086,-1.4059,-1.4059,-1.4059,-1.4048,-1.4048,-1.4047,-1.4055,-1.4056,-1.4056,-1.4057,-1.4045,-1.4044,-1.4044,0,0,0,0,0,0,0,0,0,0,0,0,0,-1.4075,-1.4085,-1.4059,-1.4062,-1.4062,-1.4048,-1.4048,-1.4047,-1.4055,-1.4056,-1.4056,-1.4057,-1.4045,-1.4044,-1.4044,-1.4027,0,0,-1.4041,-1.404,0,0,0,0,0,0,0,0,-1.4075,-1.4074,-1.4061,-1.4061,-1.4061,-1.4054,-1.4053,-1.404,-1.4055,-1.4058,-1.4057,-1.4057,-1.4047,-1.4046,-1.4043,-1.4026,-1.4026,-1.404,-1.404,-1.4039,-1.4039,0,0,0,0,0,0,0,-1.4076,-1.4074,-1.4055,-1.4061,-1.4061,-1.4063,-1.4062,-1.4051,-1.405,-1.4058,-1.4058,-1.4057,-1.4048,-1.4044,-1.4043,-1.4026,-1.4041,-1.404,-1.4039,-1.4039,-1.3991,-1.399,0,0,0,0,0,0,-1.4077,-1.4075,-1.4055,-1.4054,-1.407,-1.4062,-1.406,-1.4056,-1.405,-1.405,-1.4056,-1.4057,-1.4045,-1.4044,-1.4042,-1.402,-1.4039,-1.4039,-1.4038,-1.3992,-1.3991,-1.399,0,0,0,0,0,0,-1.4077,-1.4075,-1.4056,-1.4065,-1.4062,-1.4061,-1.4055,-1.4055,-1.4051,-1.4049,-1.4049,-1.4053,-1.4046,-1.4044,-1.403,-1.402,-1.4038,-1.4037,-1.3992,-1.3991,-1.399,-1.3977,0,0,0,0,0,0,-1.4078,-1.4075,-1.4069,-1.4064,-1.4062,-1.4044,-1.4055,-1.4054,-1.405,-1.4051,-1.4045,-1.4045,-1.4046,-1.4031,-1.4029,-1.4019,-1.4037,-1.3993,-1.3992,-1.3991,-1.3978,-1.3975,-1.3973,0,0,0,0,0,-1.4079,-1.4067,-1.4069,-1.4067,-1.4055,-1.4043,-1.4042,-1.4043,-1.4049,-1.4043,-1.404,-1.4045,-1.4021,-1.403,-1.4027,-1.4017,-1.3994,-1.3992,-1.3991,-1.3979,-1.3976,-1.3973,0,0,0,0,0,0,-1.4071,-1.4066,-1.4069,-1.4055,-1.4049,-1.4045,-1.4037,-1.404,-1.4033,-1.4034,-1.4035,-1.4034,-1.4019,-1.4017,-1.4026,-1.3998,-1.4008,-1.4006,-1.4,-1.3997,-1.3995,-1.3995,-1.4036,0,0,0,0,0,-1.4068,-1.4059,-1.4055,-1.4043,-1.404,-1.4039,-1.4034,-1.4035,-1.4029,-1.4027,-1.4024,-1.4018,-1.4009,-1.4003,-1.3995,-1.3978,-1.3975,-1.3969,-1.3966,-1.3964,-1.3962,-1.395,-1.3946,-1.3985,-1.3985,-1.3985,0,0,-1.4061,-1.4057,-1.4052,-1.4042,-1.4037,-1.4027,-1.4037,-1.4027,-1.4019,-1.4026,-1.4012,-1.4009,-1.4002,-1.3986,-1.3979,-1.3983,-1.3951,-1.3962,-1.3961,-1.396,-1.3948,-1.3944,-1.3941,-1.3984,-1.3984,-1.3984,0,0,-1.4043,-1.404,-1.4028,-1.4023,-1.4016,-1.4015,-1.4012,-1.4006,-1.4004,-1.399,-1.3994,-1.3985,-1.397,-1.3964,-1.3959,-1.3935,-1.3939,-1.3933,-1.3919,-1.3907,-1.3904,-1.3901,-1.3891,-1.3887,-1.3931,-1.3931,-1.3931,0,-1.4036,-1.4021,-1.4022,-1.4011,-1.4005,-1.4009,-1.3996,-1.3992,-1.3982,-1.3978,-1.3984,-1.3963,-1.3959,-1.3939,-1.3933,-1.393,-1.3925,-1.3933,-1.3905,-1.3902,-1.3899,-1.3889,-1.3885,-1.393,-1.393,-1.393,-1.393,0,-1.4011,-1.4,-1.3992,-1.3981,-1.3975,-1.3963,-1.3961,-1.3954,-1.3954,-1.3952,-1.3936,-1.3931,-1.392,-1.3916,-1.3918,-1.3896,-1.3899,-1.3905,-1.3915,-1.3895,-1.3885,-1.3881,-1.3929,-1.3929,-1.3929,-1.393,0,0,-1.399,-1.3977,-1.3974,-1.3968,-1.3959,-1.3951,-1.3938,-1.3927,-1.392,-1.3913,-1.3901,-1.3886,-1.389,-1.3885,-1.3885,-1.3875,-1.3853,-1.3882,-1.3881,-1.3875,-1.3826,-1.382,-1.3816,-1.3855,-1.3855,-1.3854,-1.3826,0,-1.397,-1.3947,-1.3946,-1.3925,-1.3914,-1.3916,-1.3905,-1.3897,-1.3894,-1.3883,-1.388,-1.3869,-1.3876,-1.3872,-1.3862,-1.3858,-1.3843,-1.386,-1.3843,-1.3842,-1.3843,-1.3811,-1.3806,-1.378,-1.3822,-1.3821,-1.3821,0,-1.3944,-1.3934,-1.3912,-1.3901,-1.3897,-1.3886,-1.3874,-1.3865,-1.3855,-1.3853,-1.3845,-1.3847,-1.3832,-1.3842,-1.3821,-1.3832,-1.3825,-1.3821,-1.382,-1.3818,-1.383,-1.3806,-1.3771,-1.3767,-1.3815,-1.3816,-1.3816,0,-1.3928,-1.3909,-1.3893,-1.3888,-1.3876,-1.3868,-1.3863,-1.3854,-1.3846,-1.3836,-1.383,-1.3818,-1.3811,-1.3801,-1.3798,-1.3807,-1.3776,-1.3787,-1.3772,-1.3772,-1.3765,-1.3765,-1.3727,-1.3763,-1.3763,-1.3763,-1.3763,0,-1.3905,-1.3891,-1.3885,-1.3875,-1.3857,-1.3856,-1.3839,-1.3834,-1.3825,-1.3813,-1.3815,-1.3803,-1.3801,-1.3788,-1.3786,-1.3766,-1.3764,-1.3761,-1.376,-1.3759,-1.376,-1.3754,-1.3755,-1.3762,-1.3762,-1.3762,-1.3763,0,-1.3885,-1.3881,-1.3862,-1.3851,-1.3848,-1.3836,-1.3826,-1.3815,-1.3811,-1.3795,-1.3791,-1.3785,-1.377,-1.3766,-1.3748,-1.3746,-1.3723,-1.3725,-1.3726,-1.3725,-1.371,-1.371,-1.3665,-1.3658,-1.37,-1.37,-1.37,0,-1.3871,-1.3859,-1.3846,-1.3838,-1.3831,-1.3818,-1.3809,-1.3806,-1.3797,-1.3783,-1.3773,-1.3758,-1.3746,-1.3721,-1.3714,-1.37,-1.37,-1.3685,-1.3698,-1.3697,-1.3697,-1.3697,-1.3695,-1.3683,-1.3682,-1.3682,-1.3681,0,-1.3844,-1.3842,-1.3829,-1.3815,-1.3804,-1.3793,-1.3782,-1.3775,-1.3769,-1.3759,-1.3742,-1.3732,-1.3713,-1.3697,-1.3681,-1.3675,-1.3676,-1.3677,-1.3673,-1.3671,-1.3671,-1.3669,-1.3717,-1.3678,-1.3679,-1.3679,-1.3679,-1.3679,-1.3825,-1.3814,-1.3802,-1.3787,-1.3778,-1.3767,-1.3755,-1.3748,-1.3734,-1.3718,-1.3716,-1.3698,-1.3686,-1.3665,-1.3658,-1.3642,-1.3647,-1.3641,-1.3639,-1.3637,-1.3634,-1.3675,-1.364,-1.364,-1.364,-1.364,-1.364,0,-1.3797,-1.3789,-1.3775,-1.3759,-1.3746,-1.3748,-1.3735,-1.3724,-1.3707,-1.3696,-1.3682,-1.3662,-1.3645,-1.3636,-1.3619,-1.3609,-1.3608,-1.3604,-1.3604,-1.3602,-1.3633,-1.3637,-1.3604,-1.3604,-1.3604,-1.3604,-1.3604,-1.3604,-1.3781,-1.3761,-1.3757,-1.3731,-1.3723,-1.3704,-1.3696,-1.3685,-1.3675,-1.3652,-1.3637,-1.3631,-1.362,-1.3601,-1.3585,-1.3583,-1.3576,-1.357,-1.3568,-1.3597,-1.36,-1.3604,-1.3608,-1.3569,-1.3569,-1.3538,-1.3538,-1.3538]}]]